DW7857 Weather Reports


Display with metric or nautical units.
time (UTC)temp
F
wind
direction
speed
MPH
gust
MPH
rain 1hr
in
rain 24hr
in
rain mn
in
humidity
%
barometer
mb
20210122090022 33 171 1.0 3.0 0.00 0.00 0.00 88 1029.0
20210122085515 32 187 1.0 3.0 0.00 0.00 0.00 87 1029.2
20210122085018 32 184 2.0 4.0 0.00 0.00 0.00 87 1029.0
20210122084514 32 177 1.0 4.0 0.00 0.00 0.00 87 1029.0
20210122084017 32 186 1.0 2.0 0.00 0.00 0.00 87 1028.8
20210122083527 32 181 1.0 2.0 0.00 0.00 0.00 87 1029.0
20210122083021 32 172 1.0 2.0 0.00 0.00 0.00 87 1028.9
20210122082509 32 176 1.0 2.0 0.00 0.00 0.00 87 1028.6
20210122082017 32 205 1.0 2.0 0.00 0.00 0.00 87 1028.9
20210122081520 32 212 1.0 2.0 0.00 0.00 0.00 87 1028.8
20210122081020 32 185 1.0 2.0 0.00 0.00 0.00 87 1028.8
20210122080514 32 183 1.0 2.0 0.00 0.00 0.00 87 1028.6
20210122080015 32 207 1.0 3.0 0.00 0.00 0.00 87 1028.7
20210122075521 32 203 1.0 3.0 0.00 0.00 0.00 87 1028.6
20210122075023 32 192 2.0 3.0 0.00 0.00 0.00 87 1028.6
20210122074517 33 186 2.0 3.0 0.00 0.00 0.00 87 1028.5
20210122074018 33 185 2.0 4.0 0.00 0.00 0.00 87 1028.4
20210122073517 33 190 2.0 4.0 0.00 0.00 0.00 87 1028.5
20210122073023 33 185 1.0 4.0 0.00 0.00 0.00 87 1028.5
20210122072513 33 181 1.0 2.0 0.00 0.00 0.00 87 1028.1
20210122072017 33 173 1.0 2.0 0.00 0.00 0.00 87 1028.1
20210122071520 33 171 1.0 3.0 0.00 0.00 0.00 87 1028.0
20210122071017 33 186 1.0 3.0 0.00 0.00 0.00 87 1028.2
20210122070517 33 196 0.0 3.0 0.00 0.00 0.00 87 1028.0
20210122070021 32 195 0.0 2.0 0.00 0.00 0.00 86 1028.0
20210122065509 33 186 0.0 2.0 0.00 0.00 0.00 87 1028.0
20210122065018 33 176 0.0 2.0 0.00 0.00 0.00 87 1027.8
20210122064520 33 145 1.0 2.0 0.00 0.00 0.00 87 1027.8
20210122064029 33 157 1.0 2.0 0.00 0.00 0.00 87 1027.7
20210122063519 33 173 1.0 2.0 0.00 0.00 0.00 87 1027.6
20210122063018 33 182 1.0 2.0 0.00 0.00 0.00 87 1027.7
20210122062515 33 191 0.0 2.0 0.00 0.00 0.00 86 1027.8
20210122062025 32 164 0.0 2.0 0.00 0.00 0.00 86 1027.3
20210122061519 32 174 0.0 2.0 0.00 0.00 0.00 86 1027.4
20210122061012 32 177 0.0 2.0 0.00 0.00 0.00 86 1027.5
20210122060519 32 159 0.0 2.0 0.00 0.00 0.00 86 1027.7
20210122060017 32 271 0.0 2.0 0.00 0.00 0.00 86 1027.5
20210122055511 32 324 0.0 2.0 0.00 0.00 0.00 86 1027.4
20210122055018 32 72 0.0 1.0 0.00 0.00 0.00 86 1027.5
20210122054517 33 99 0.0 1.0 0.00 0.00 0.00 86 1027.2
20210122054020 33 150 0.0 2.0 0.00 0.00 0.00 86 1027.3
20210122053516 33 171 1.0 2.0 0.00 0.00 0.00 86 1027.3
20210122053020 33 170 1.0 3.0 0.00 0.00 0.00 86 1027.3
20210122052518 33 191 1.0 3.0 0.00 0.00 0.00 86 1027.2
20210122052019 33 192 1.0 3.0 0.00 0.00 0.00 86 1027.3
20210122051512 33 185 1.0 3.0 0.00 0.00 0.00 86 1027.2
20210122051019 33 190 2.0 5.0 0.00 0.00 0.00 86 1027.3
20210122050517 33 190 3.0 6.0 0.00 0.00 0.00 86 1027.0
20210122050021 33 184 3.0 6.0 0.00 0.00 0.00 86 1027.1
20210122045518 33 187 3.0 6.0 0.00 0.00 0.00 86 1027.3
20210122045017 33 182 2.0 4.0 0.00 0.00 0.00 86 1027.0
20210122044510 33 172 2.0 4.0 0.00 0.00 0.00 86 1027.0
20210122044018 33 190 1.0 3.0 0.00 0.00 0.00 85 1026.8
20210122043513 33 230 0.0 2.0 0.00 0.00 0.00 85 1026.7
20210122043020 33 221 0.0 2.0 0.00 0.00 0.00 85 1026.8
20210122042515 33 205 0.0 2.0 0.00 0.00 0.00 85 1026.7
20210122042020 33 192 1.0 2.0 0.00 0.00 0.00 85 1026.6
20210122041519 33 189 1.0 2.0 0.00 0.00 0.00 85 1026.6
20210122041020 33 192 1.0 2.0 0.00 0.00 0.00 85 1026.6
20210122040514 33 192 1.0 2.0 0.00 0.00 0.00 85 1026.6
20210122040021 33 191 1.0 2.0 0.00 0.00 0.00 85 1026.7
20210122035522 33 198 1.0 2.0 0.00 0.00 0.00 85 1026.6
20210122035011 34 196 1.0 4.0 0.00 0.00 0.00 85 1026.6
20210122034519 34 192 2.0 4.0 0.00 0.00 0.00 85 1026.6
20210122034021 34 193 2.0 4.0 0.00 0.00 0.00 85 1026.6
20210122033518 34 185 2.0 4.0 0.00 0.00 0.00 85 1026.6
20210122033015 34 183 1.0 3.0 0.00 0.00 0.00 85 1026.5
20210122032512 34 266 1.0 2.0 0.00 0.00 0.00 85 1026.6
20210122032020 34 168 1.0 2.0 0.00 0.00 0.00 85 1026.4
20210122031517 34 174 1.0 3.0 0.00 0.00 0.00 85 1026.6
20210122031025 35 181 2.0 3.0 0.00 0.00 0.00 85 1026.3
20210122030522 35 186 2.0 3.0 0.00 0.00 0.00 85 1026.3
20210122030018 35 187 1.0 3.0 0.00 0.00 0.00 85 1026.3
20210122025521 35 183 2.0 4.0 0.00 0.00 0.00 85 1026.2
20210122025018 35 185 2.0 4.0 0.00 0.00 0.00 85 1026.2
20210122024515 35 200 3.0 5.0 0.00 0.00 0.00 85 1026.2
20210122024018 35 211 2.0 5.0 0.00 0.00 0.00 85 1026.3
20210122023520 35 199 1.0 4.0 0.00 0.00 0.00 85 1026.0
20210122023022 35 188 1.0 2.0 0.00 0.00 0.00 85 1026.5
20210122022515 35 142 0.0 2.0 0.00 0.00 0.00 84 1025.9
20210122022019 35 79 0.0 2.0 0.00 0.00 0.00 84 1026.1
20210122021522 35 335 0.0 2.0 0.00 0.00 0.00 85 1026.2
20210122021036 35 330 1.0 2.0 0.00 0.00 0.00 85 1026.1
20210122020520 35 342 0.0 2.0 0.00 0.00 0.00 85 1025.9
20210122020023 36 327 1.0 2.0 0.00 0.00 0.00 85 1026.0
20210122015517 36 227 1.0 4.0 0.00 0.00 0.00 85 1025.8
20210122015020 36 209 2.0 4.0 0.00 0.00 0.00 85 1025.8
20210122014525 35 207 1.0 4.0 0.00 0.00 0.00 84 1025.9
20210122014023 35 189 0.0 2.0 0.00 0.00 0.00 84 1026.0
20210122013522 35 172 0.0 2.0 0.00 0.00 0.00 84 1025.7
20210122013022 35 139 0.0 2.0 0.00 0.00 0.00 84 1026.0
20210122012514 36 176 1.0 3.0 0.00 0.00 0.00 85 1025.9
20210122012025 36 187 2.0 3.0 0.00 0.00 0.00 85 1025.7
20210122011526 36 186 2.0 4.0 0.00 0.00 0.00 85 1025.9
20210122011019 36 195 1.0 4.0 0.00 0.00 0.00 85 1025.9
20210122010516 36 240 1.0 4.0 0.00 0.00 0.00 85 1025.8
20210122010019 36 221 1.0 4.0 0.00 0.00 0.00 85 1025.7
20210122005526 36 199 1.0 2.0 0.00 0.00 0.00 85 1025.6
20210122005010 36 221 1.0 2.0 0.00 0.00 0.00 85 1025.4
20210122004525 36 269 0.0 2.0 0.00 0.00 0.00 84 1025.7
20210122004019 36 307 1.0 3.0 0.00 0.00 0.00 84 1025.7
20210122003519 36 311 1.0 3.0 0.00 0.00 0.00 84 1025.6
20210122003024 36 271 2.0 4.0 0.00 0.00 0.00 84 1025.6
20210122002514 36 205 1.0 4.0 0.00 0.00 0.00 84 1025.5
20210122002021 35 190 1.0 3.0 0.00 0.00 0.00 84 1025.6
20210122001513 35 127 0.0 2.0 0.00 0.00 0.00 83 1025.4
20210122001015 35 165 0.0 2.0 0.00 0.00 0.00 83 1025.5
20210122000523 35 173 1.0 3.0 0.00 0.00 0.00 83 1025.4
20210122000031 35 186 1.0 4.0 0.00 0.00 0.00 83 1025.5
20210121235514 35 186 1.0 4.0 0.00 0.00 0.00 83 1025.4
20210121235017 35 176 1.0 3.0 0.00 0.00 0.00 83 1025.4
20210121234518 36 185 1.0 2.0 0.00 0.00 0.00 83 1025.6
20210121234022 36 195 1.0 3.0 0.00 0.00 0.00 83 1025.5
20210121233518 36 190 2.0 5.0 0.00 0.00 0.00 83 1025.3
20210121233019 36 177 3.0 5.0 0.00 0.00 0.00 83 1025.1
20210121232511 36 176 2.0 4.0 0.00 0.00 0.00 83 1025.3
20210121232019 36 193 2.0 4.0 0.00 0.00 0.00 83 1025.2
20210121231520 36 191 1.0 2.0 0.00 0.00 0.00 82 1025.3
20210121231013 36 188 1.0 2.0 0.00 0.00 0.00 82 1025.2
20210121230516 36 208 1.0 2.0 0.00 0.00 0.00 82 1025.2
20210121230019 36 223 1.0 2.0 0.00 0.00 0.00 82 1025.2
20210121225513 36 192 1.0 3.0 0.00 0.01 0.00 82 1024.9
20210121225022 36 179 2.0 3.0 0.00 0.01 0.00 82 1024.7
20210121224519 36 183 2.0 3.0 0.00 0.01 0.00 82 1024.9
20210121224013 36 190 2.0 3.0 0.00 0.01 0.00 82 1024.9
20210121223523 36 174 2.0 3.0 0.00 0.01 0.00 82 1024.5
20210121223019 36 159 1.0 3.0 0.00 0.01 0.00 82 1024.8
20210121222530 36 177 1.0 2.0 0.00 0.01 0.00 81 1024.6
20210121222022 37 186 1.0 2.0 0.00 0.01 0.00 81 1024.5
20210121221514 37 184 1.0 2.0 0.00 0.01 0.00 81 1024.3
20210121221019 37 189 1.0 2.0 0.00 0.01 0.00 81 1024.3
20210121220512 37 179 1.0 2.0 0.00 0.01 0.00 81 1024.3
20210121220023 37 172 1.0 3.0 0.00 0.01 0.00 81 1024.3
20210121215511 37 201 1.0 3.0 0.00 0.01 0.00 81 1024.0
20210121215020 37 210 1.0 2.0 0.00 0.01 0.00 81 1023.8
20210121214521 37 192 1.0 3.0 0.00 0.01 0.00 81 1024.0
20210121214017 38 181 2.0 3.0 0.00 0.01 0.00 81 1023.8
20210121213512 38 178 1.0 2.0 0.00 0.01 0.00 81 1023.8
20210121213019 38 190 1.0 3.0 0.00 0.01 0.00 81 1023.7
20210121212516 38 190 2.0 3.0 0.00 0.01 0.00 81 1023.8
20210121212020 38 193 1.0 3.0 0.00 0.01 0.00 81 1023.6
20210121211517 38 187 1.0 2.0 0.00 0.01 0.00 81 1023.9
20210121211020 38 186 1.0 4.0 0.00 0.01 0.00 81 1023.6
20210121210518 38 199 2.0 4.0 0.00 0.01 0.00 81 1023.6
20210121210024 38 208 1.0 3.0 0.00 0.01 0.00 81 1023.4
20210121205518 38 196 1.0 3.0 0.00 0.01 0.00 81 1023.6
20210121205019 38 206 1.0 3.0 0.00 0.02 0.00 81 1023.2
20210121204516 38 221 1.0 3.0 0.00 0.02 0.00 81 1023.3
20210121204017 38 214 1.0 3.0 0.00 0.04 0.00 81 1023.6
20210121203519 38 194 1.0 3.0 0.00 0.06 0.00 81 1023.2
20210121203018 38 199 0.0 2.0 0.00 0.06 0.00 81 1023.5
20210121202516 38 248 1.0 2.0 0.00 0.09 0.00 80 1023.3
20210121202018 38 264 1.0 2.0 0.00 0.11 0.00 80 1023.0
20210121201524 38 254 0.0 2.0 0.00 0.12 0.00 80 1023.2
20210121201020 38 246 0.0 2.0 0.00 0.12 0.00 80 1023.1
20210121200514 38 225 0.0 2.0 0.00 0.13 0.00 79 1023.0
20210121200019 38 225 0.0 1.0 0.00 0.13 0.00 79 1023.0
20210121195517 38 220 0.0 1.0 0.00 0.13 0.00 79 1022.9
20210121195015 39 238 0.0 1.0 0.00 0.14 0.00 79 1022.6
20210121194521 39 260 0.0 2.0 0.00 0.14 0.00 78 1022.7
20210121194017 39 262 0.0 2.0 0.00 0.17 0.00 78 1022.7
20210121193518 40 288 0.0 3.0 0.00 0.17 0.00 78 1022.5
20210121193021 40 311 1.0 3.0 0.00 0.18 0.00 78 1022.3
20210121192516 40 291 1.0 4.0 0.00 0.18 0.00 78 1022.4
20210121192017 40 286 1.0 4.0 0.00 0.19 0.00 78 1022.3
20210121191516 41 299 2.0 4.0 0.00 0.20 0.00 77 1022.2
20210121191020 41 306 2.0 4.0 0.00 0.21 0.00 77 1022.3
20210121190516 41 304 2.0 4.0 0.00 0.22 0.00 77 1022.1
20210121190021 41 300 2.0 4.0 0.00 1.91 0.00 77 1021.9
20210121185510 41 296 1.0 2.0 0.00 1.91 0.00 76 1021.8
20210121185017 41 300 1.0 3.0 0.00 1.91 0.00 76 1021.7
20210121184521 41 307 1.0 3.0 0.00 1.91 0.00 75 1021.8
20210121184018 42 305 2.0 4.0 0.00 1.91 0.00 75 1021.7
20210121183519 42 318 1.0 4.0 0.00 1.91 0.00 75 1021.6
20210121183024 42 359 1.0 2.0 0.00 1.91 0.00 74 1021.5
20210121182518 42 12 1.0 2.0 0.00 1.91 0.00 74 1021.3
20210121182008 42 26 0.0 2.0 0.00 1.91 0.00 73 1021.4
20210121181520 42 35 0.0 2.0 0.00 1.91 0.00 73 1021.3
20210121181012 42 327 1.0 4.0 0.00 1.91 0.00 73 1021.6
20210121180509 42 295 2.0 4.0 0.00 1.91 0.00 73 1021.1
20210121180020 42 302 2.0 4.0 0.00 1.91 0.00 73 1021.3
20210121175516 42 321 3.0 4.0 0.00 1.91 0.00 73 1021.2
20210121175022 42 321 2.0 4.0 0.00 1.91 0.00 73 1021.2
20210121174519 42 306 2.0 4.0 0.00 1.91 0.00 74 1020.9
20210121174021 43 297 1.0 4.0 0.00 1.91 0.00 74 1020.8
20210121173514 43 288 1.0 3.0 0.00 1.91 0.00 75 1020.8
20210121173027 43 305 2.0 4.0 0.00 1.91 0.00 75 1020.8
20210121172518 43 322 2.0 4.0 0.00 1.91 0.00 76 1021.0
20210121172021 43 309 2.0 4.0 0.00 1.91 0.00 77 1020.7
20210121171512 43 312 1.0 4.0 0.00 1.91 0.00 76 1020.6
20210121171013 43 346 1.0 4.0 0.00 1.91 0.00 76 1020.5
20210121170515 43 298 1.0 2.0 0.00 1.91 0.00 76 1020.5
20210121170021 43 222 1.0 2.0 0.00 1.91 0.00 75 1020.6
20210121165520 43 200 1.0 2.0 0.00 1.91 0.00 75 1020.5
20210121165013 43 286 1.0 2.0 0.00 1.91 0.00 74 1020.5
20210121164519 43 294 1.0 2.0 0.00 1.91 0.00 74 1020.5
20210121164016 43 315 0.0 2.0 0.00 1.91 0.00 73 1020.3
20210121163520 44 316 0.0 2.0 0.00 1.91 0.00 73 1020.2
20210121163017 44 305 1.0 2.0 0.00 1.91 0.00 73 1020.5
20210121162513 44 312 1.0 2.0 0.00 1.91 0.00 73 1020.4
20210121162019 44 321 1.0 2.0 0.00 1.91 0.00 72 1020.5
20210121161519 44 315 1.0 3.0 0.00 1.91 0.00 72 1020.6
20210121161019 44 312 1.0 3.0 0.00 1.91 0.00 72 1020.5
20210121160519 44 311 1.0 3.0 0.00 1.91 0.00 72 1020.4
20210121160018 44 305 1.0 3.0 0.00 1.91 0.00 71 1020.5
20210121155510 44 300 1.0 4.0 0.00 1.91 0.00 71 1020.4
20210121155010 44 300 2.0 4.0 0.00 1.91 0.00 71 1020.6
20210121154517 45 295 2.0 4.0 0.00 1.91 0.00 71 1020.4
20210121154018 45 295 2.0 3.0 0.00 1.91 0.00 71 1020.6
20210121153519 45 302 1.0 3.0 0.00 1.91 0.00 71 1020.7
20210121153022 45 294 1.0 3.0 0.00 1.91 0.00 71 1020.6
20210121152516 45 291 2.0 3.0 0.00 1.91 0.00 71 1020.5
20210121152012 45 301 2.0 7.0 0.00 1.91 0.00 70 1020.3
20210121151518 45 296 3.0 7.0 0.00 1.91 0.00 71 1020.7
20210121151015 45 289 2.0 4.0 0.00 1.91 0.00 71 1020.5
20210121150508 45 292 1.0 3.0 0.00 1.91 0.00 71 1020.9
20210121150021 45 290 2.0 6.0 0.00 1.91 0.00 71 1020.7
20210121145520 45 277 1.0 6.0 0.00 1.91 0.00 71 1020.7
20210121145018 45 275 0.0 3.0 0.00 1.91 0.00 72 1020.6
20210121144517 46 279 1.0 2.0 0.00 1.91 0.00 68 1020.8
20210121144018 46 271 1.0 2.0 0.00 1.91 0.00 67 1020.8
20210121143518 46 246 1.0 3.0 0.00 1.91 0.00 68 1021.0
20210121143019 46 246 1.0 3.0 0.00 1.91 0.00 67 1020.9
20210121142524 46 262 1.0 2.0 0.00 1.91 0.00 67 1020.9
20210121142018 46 301 1.0 2.0 0.00 1.91 0.00 67 1021.0
20210121141525 46 286 1.0 3.0 0.00 1.91 0.00 67 1021.1
20210121141017 46 250 2.0 4.0 0.00 1.91 0.00 66 1021.0
20210121140517 46 267 2.0 4.0 0.00 1.91 0.00 66 1021.1
20210121140025 46 283 2.0 4.0 0.00 1.91 0.00 66 1021.4
20210121135528 46 243 2.0 7.0 0.00 1.91 0.00 65 1021.4
20210121135019 46 188 3.0 7.0 0.00 1.91 0.00 65 1021.3
20210121134509 46 179 2.0 8.0 0.00 1.91 0.00 65 1021.5
20210121134018 46 201 3.0 8.0 0.00 1.91 0.00 65 1021.2
20210121133521 46 212 3.0 6.0 0.00 1.91 0.00 64 1021.7
20210121133017 46 206 3.0 7.0 0.00 1.91 0.00 65 1021.6
20210121132519 46 207 3.0 8.0 0.00 1.91 0.00 64 1021.6
20210121132017 46 223 3.0 8.0 0.00 1.91 0.00 64 1021.7
20210121131517 46 270 3.0 7.0 0.00 1.91 0.00 64 1021.8
20210121131019 46 253 3.0 7.0 0.00 1.91 0.00 64 1021.8
20210121130523 46 237 3.0 6.0 0.00 1.91 0.00 64 1021.7
20210121130021 46 258 3.0 6.0 0.00 1.91 0.00 64 1022.0
20210121125519 46 192 3.0 8.0 0.00 1.91 0.00 64 1022.1
20210121125016 46 182 4.0 12.0 0.00 1.91 0.00 64 1021.9
20210121124514 46 183 4.0 12.0 0.00 1.91 0.00 64 1021.9
20210121124018 46 197 3.0 8.0 0.00 1.91 0.00 64 1022.3
20210121123519 46 205 4.0 8.0 0.00 1.91 0.00 64 1022.1
20210121123018 46 188 4.0 9.0 0.00 1.91 0.00 65 1022.7
20210121122522 46 172 4.0 9.0 0.00 1.91 0.00 65 1022.3
20210121122019 46 173 4.0 12.0 0.00 1.91 0.00 66 1022.7
20210121121515 46 181 5.0 12.0 0.00 1.91 0.00 66 1022.5
20210121121034 45 198 4.0 12.0 0.00 1.91 0.00 71 1022.7
20210121120558 45 217 3.0 7.0 0.00 1.91 0.00 71 1022.5
20210121120023 45 209 3.0 7.0 0.00 1.91 0.00 71 1022.7
20210121115522 45 205 3.0 7.0 0.00 1.91 0.00 72 1023.0
20210121115027 45 183 3.0 7.0 0.00 1.91 0.00 72 1022.9
20210121114521 45 175 3.0 8.0 0.00 1.91 0.00 72 1023.2
20210121114020 45 208 3.0 8.0 0.00 1.91 0.00 72 1023.0
20210121113518 45 205 3.0 6.0 0.00 1.91 0.00 72 1022.5
20210121113020 45 203 3.0 8.0 0.00 1.91 0.00 72 1023.3
20210121112519 45 203 4.0 10.0 0.00 1.91 0.00 72 1023.2
20210121112017 45 181 4.0 10.0 0.00 1.91 0.00 71 1023.1
20210121111521 45 203 3.0 10.0 0.00 1.91 0.00 71 1023.3
20210121111026 45 204 4.0 8.0 0.00 1.91 0.00 71 1023.4
20210121110522 45 197 4.0 8.0 0.00 1.91 0.00 71 1023.1
20210121110019 45 223 4.0 8.0 0.00 1.91 0.00 72 1023.0
20210121105529 45 224 4.0 8.0 0.00 1.91 0.00 72 1023.1
20210121105020 45 207 5.0 9.0 0.00 1.91 0.00 72 1023.4
20210121104515 45 203 5.0 9.0 0.00 1.91 0.00 72 1023.2
20210121104017 44 182 5.0 9.0 0.00 1.91 0.00 72 1023.3
20210121103513 44 182 4.0 9.0 0.00 1.91 0.00 72 1023.3
20210121103015 44 201 4.0 9.0 0.00 1.91 0.00 73 1023.3
20210121102519 44 224 4.0 8.0 0.00 1.91 0.00 73 1023.1
20210121102019 44 217 4.0 8.0 0.00 1.91 0.00 72 1023.2
20210121101514 44 229 5.0 10.0 0.00 1.91 0.00 72 1023.3
20210121101022 44 145 5.0 10.0 0.00 1.91 0.00 72 1023.3
20210121100517 43 142 4.0 10.0 0.00 1.91 0.00 72 1023.3
20210121100024 43 230 4.0 7.0 0.00 1.91 0.00 72 1023.3
20210121095517 43 214 4.0 12.0 0.00 1.91 0.00 73 1023.4
20210121095015 43 195 4.0 12.0 0.00 1.91 0.00 73 1023.4
20210121094531 43 166 4.0 10.0 0.00 1.91 0.00 73 1023.5
20210121094014 43 171 4.0 9.0 0.00 1.91 0.00 73 1023.3
20210121093518 42 183 4.0 9.0 0.00 1.91 0.00 73 1023.4
20210121093024 42 190 5.0 10.0 0.00 1.91 0.00 73 1023.6
20210121092505 42 176 5.0 13.0 0.00 1.91 0.00 73 1023.3
20210121092019 42 196 5.0 13.0 0.00 1.91 0.00 73 1023.3
20210121091518 42 196 4.0 11.0 0.00 1.91 0.00 73 1023.4
20210121091014 42 165 5.0 11.0 0.00 1.91 0.00 73 1023.5
20210121090515 42 194 5.0 10.0 0.00 1.91 0.00 73 1023.5